Location: Newark
(37.9800°N, 91.3000°W)
Time: 06:31:01
(UTC+00:00)

NOAA 19 - Pass Details

Date: 15 December 2019
Orbit: 840 x 862 km, 99.2° (Epoch: 27 January)

Event Time Altitude Azimuth Distance (km) Brightness Sun altitude
Rises 12:11:14 0° 9° (N) 3,437 8.3 -12.0°
Reaches altitude 10° 12:13:39 10° 6° (N) 2,494 7.5 -11.6°
Maximum altitude 12:19:04 60° 288° (WNW) 972 5.2 -10.6°
Drops below altitude 10° 12:24:26 10° 210° (SSW) 2,464 7.6 -9.6°
Sets 12:26:49 0° 206° (SSW) 3,393 8.3 -9.2°
